Kansas City International, MO

3:17 AM CDT on July 25, 2017 (GMT -0500)
Kansas City International

Weather History for KMCI - July, 2013

Change the Weather History Date:

Monday, July 8, 2013

  Actual Average Record
Temperature  
Mean Temperature 83 °F 78 °F  
Max Temperature 92 °F 88 °F 101 °F (1980)
Min Temperature 74 °F 68 °F 54 °F (1891)
Degree Days  
Heating Degree Days 0 0  
Month to date heating degree days 0 0  
Since 1 June heating degree days 17 9  
Since 1 July heating degree days 0 0  
Cooling Degree Days 18 13  
Month to date cooling degree days 82 102  
Year to date cooling degree days 463 484  
Since 1 June cooling degree days 358 368  
Growing Degree Days 32 (Base 50)    
Moisture  
Dew Point 66 °F    
Average Humidity 59    
Maximum Humidity 69    
Minimum Humidity 49    
Precipitation  
Precipitation 0.00 in 0.15 in 4.59 in (1926)
Month to date precipitation 0.17 1.27  
Year to date precipitation 18.22 20.33  
Snow  
Snow 0.00 in 0.00 in 0.00 in ()
Month to date snowfall 0.0 0.0  
Since 1 June snowfall 0.0 0.0  
Since 1 July snowfall 0.0 0.0  
Snow Depth 0.00 in    
Sea Level Pressure  
Sea Level Pressure 29.97 in    
Wind  
Wind Speed 10 mph (SSW)    
Max Wind Speed 18 mph    
Max Gust Speed 23 mph    
Visibility 10 miles    
Events      
T = Trace of Precipitation, MM = Missing Value Source: NWS Daily Summary

Daily Weather History Graph

Daily Weather History Graph

Search for Another Location

Airport or City:

Trip Planner

Search our weather history database for the weather conditions in past years. The results will help you decide how hot, cold, wet, or windy it might be!

Date:

Astronomy

Jul. 08, 2013 Rise Set
Actual Time 6:00 AM CDT 8:47 PM CDT
Civil Twilight 5:28 AM CDT 9:19 PM CDT
Nautical Twilight 4:48 AM CDT 9:59 PM CDT
Astronomical Twilight 4:02 AM CDT 10:44 PM CDT
Moon 6:29 AM CDT (7/8) 8:51 PM CDT (7/8)
Length of Visible Light 15h 51m
Length of Day
14h 47m
New Moon, 0% of the Moon is Illuminated
Jul 8
New Moon
Jul 15
First Quarter
Jul 22
Full
Jul 29
Last Quarter
Aug 6
New

Hourly Weather History & Observations

Time (CDT) Temp. Heat Index Dew Point Humidity Pressure Visibility Wind Dir Wind Speed Gust Speed Precip Events Conditions
12:53 AM 78.1 °F - 63.0 °F 60% 29.95 in 10.0 mi South 10.4 mph - N/A   Partly Cloudy
1:53 AM 79.0 °F - 63.0 °F 58% 29.95 in 10.0 mi SSW 11.5 mph - N/A   Partly Cloudy
2:53 AM 80.1 °F 81.2 °F 62.1 °F 54% 29.95 in 10.0 mi SSW 13.8 mph - N/A   Clear
3:53 AM 79.0 °F - 62.1 °F 56% 29.96 in 10.0 mi SSW 16.1 mph 23.0 mph N/A   Overcast
4:53 AM 78.1 °F - 62.1 °F 58% 29.97 in 10.0 mi SW 8.1 mph - N/A   Overcast
5:53 AM 75.0 °F - 63.0 °F 66% 29.97 in 10.0 mi SSW 8.1 mph - N/A   Overcast
6:53 AM 75.0 °F - 64.0 °F 69% 29.97 in 10.0 mi SSW 8.1 mph - N/A   Overcast
7:53 AM 75.9 °F - 64.9 °F 69% 29.98 in 10.0 mi SSW 8.1 mph - N/A   Mostly Cloudy
8:53 AM 79.0 °F - 66.0 °F 64% 29.99 in 10.0 mi SW 9.2 mph - N/A   Mostly Cloudy
9:53 AM 80.1 °F 82.1 °F 66.0 °F 62% 29.99 in 10.0 mi SSW 11.5 mph 19.6 mph N/A   Mostly Cloudy
10:53 AM 82.0 °F 84.9 °F 68.0 °F 62% 30.00 in 10.0 mi SSW 12.7 mph - N/A   Mostly Cloudy
11:53 AM 84.0 °F 87.8 °F 69.1 °F 61% 30.00 in 10.0 mi SSW 11.5 mph - N/A   Mostly Cloudy
12:53 PM 89.1 °F 92.9 °F 68.0 °F 50% 29.99 in 10.0 mi SSW 16.1 mph - N/A   Mostly Cloudy
1:53 PM 91.0 °F 95.6 °F 69.1 °F 48% 29.98 in 10.0 mi SSW 12.7 mph - N/A   Mostly Cloudy
2:53 PM 91.9 °F 96.9 °F 69.1 °F 47% 29.97 in 10.0 mi SSW 15.0 mph - N/A   Mostly Cloudy
3:53 PM 90.0 °F 94.5 °F 69.1 °F 50% 29.97 in 10.0 mi South 4.6 mph - N/A   Mostly Cloudy
4:53 PM 89.1 °F 95.0 °F 71.1 °F 55% 29.96 in 10.0 mi SSE 5.8 mph - N/A   Mostly Cloudy
5:53 PM 91.0 °F 95.6 °F 69.1 °F 48% 29.95 in 10.0 mi South 11.5 mph 20.7 mph N/A   Mostly Cloudy
6:53 PM 90.0 °F 95.4 °F 70.0 °F 52% 29.95 in 10.0 mi SSE 6.9 mph - N/A   Scattered Clouds
7:53 PM 86.0 °F 91.5 °F 71.1 °F 61% 29.94 in 10.0 mi South 6.9 mph - N/A   Partly Cloudy
8:53 PM 81.0 °F 83.8 °F 68.0 °F 65% 29.95 in 10.0 mi SSE 6.9 mph - N/A   Scattered Clouds
9:53 PM 80.1 °F 82.3 °F 66.9 °F 64% 29.96 in 10.0 mi South 9.2 mph - N/A   Partly Cloudy
10:53 PM 78.1 °F - 66.9 °F 68% 29.98 in 10.0 mi South 9.2 mph - N/A   Partly Cloudy
11:53 PM 78.1 °F - 66.9 °F 68% 29.96 in 10.0 mi South 9.2 mph - N/A   Clear